EDT,Max TemperatureF,Mean TemperatureF,Min TemperatureF,Max Dew PointF,MeanDew PointF,Min DewpointF,Max Humidity, Mean Humidity, Min Humidity, Max Sea Level PressureIn, Mean Sea Level PressureIn, Min Sea Level PressureIn, Max VisibilityMiles, Mean VisibilityMiles, Min VisibilityMiles, Max Wind SpeedMPH, Mean Wind SpeedMPH, Max Gust SpeedMPH,PrecipitationIn, CloudCover, Events, WindDirDegrees
2013-3-1,51,42,33,32,29,27,87,61,38,30.05,30.00,29.94,10,10,10,13,5,17,0.00,1,,303
2013-3-2,44,38,32,36,29,23,100,70,49,30.04,30.00,29.97,10,10,10,16,6,23,0.00,4,,290
2013-3-3,42,37,32,27,22,18,80,56,36,30.12,30.06,30.01,10,10,10,16,7,23,0.00,3,,302
2013-3-4,60,44,28,34,22,12,80,46,17,30.24,30.15,30.10,10,10,10,9,4,,0.00,0,,278
2013-3-5,69,55,41,63,46,32,100,73,54,30.12,29.99,29.77,10,10,10,18,5,25,0.00,6,Rain,234
2013-3-6,50,42,35,32,25,14,75,53,35,30.19,30.06,29.95,10,10,10,23,13,32,0.00,2,,315
2013-3-7,60,45,30,39,31,27,100,70,27,30.28,30.22,30.17,10,10,7,10,3,16,0.00,0,,296
2013-3-8,62,47,32,41,32,23,100,65,22,30.34,30.26,30.21,10,10,7,9,2,,0.00,0,,21
2013-3-9,68,50,32,45,31,21,100,59,17,30.37,30.28,30.23,10,10,2,9,2,,0.00,0,,91
2013-3-10,73,58,42,50,42,34,100,55,27,30.27,30.20,30.13,10,10,10,14,6,18,0.00,0,,142
2013-3-11,71,60,50,63,53,50,100,76,46,30.16,30.01,29.85,10,10,7,18,7,24,0.00,5,Rain,162
2013-3-12,68,57,46,61,43,28,100,66,24,30.09,29.95,29.81,10,9,3,14,6,23,0.00,3,Rain,302
2013-3-13,64,52,39,36,25,10,81,40,14,30.23,30.16,30.09,10,10,10,22,8,29,0.00,0,,315
2013-3-14,59,46,32,34,22,16,93,45,19,30.39,30.29,30.22,10,10,7,16,5,21,0.00,0,,333
2013-3-15,71,52,33,36,30,21,100,43,22,30.28,30.19,30.07,10,10,10,14,5,22,0.00,1,,259
2013-3-16,77,64,51,45,38,32,71,43,19,30.10,30.04,29.95,10,10,10,18,9,26,0.00,0,,245
2013-3-17,71,58,46,63,52,45,100,70,49,30.09,30.03,29.98,10,10,2,14,7,22,0.00,2,,243
2013-3-18,73,62,51,64,59,52,100,92,61,30.06,29.98,29.82,10,9,2,12,5,44,0.00,7,Rain-Thunderstorm,174
2013-3-19,73,63,53,55,39,14,100,59,11,30.07,29.99,29.88,10,10,5,15,4,24,0.00,2,,327
2013-3-20,62,52,41,34,25,14,70,35,15,30.15,30.03,29.92,10,10,10,12,3,,0.00,1,,343
2013-3-21,55,45,35,32,23,5,87,46,13,29.99,29.95,29.91,10,10,10,15,6,23,0.00,0,,308
2013-3-22,55,46,37,48,32,18,100,58,36,30.12,30.06,29.98,10,10,10,7,2,,0.00,7,Rain,112
2013-3-23,60,53,46,55,47,39,100,83,63,30.10,29.95,29.85,10,10,5,13,4,22,0.00,8,Rain-Thunderstorm,95
2013-3-24,59,55,51,59,54,41,100,99,62,29.83,29.63,29.57,10,8,1,15,7,23,0.00,8,Rain-Thunderstorm,48
2013-3-25,55,47,37,37,24,12,61,42,18,30.09,29.88,29.70,10,10,10,25,13,34,0.00,2,,299
2013-3-26,48,40,32,27,23,19,75,52,34,30.29,30.17,30.09,10,10,10,17,9,28,0.00,3,,309
2013-3-27,59,44,30,36,24,16,100,54,19,30.37,30.29,30.24,10,10,10,12,4,20,0.00,0,,312
2013-3-28,64,48,32,37,26,16,100,49,16,30.38,30.30,30.22,10,10,10,13,3,18,0.00,0,,337
2013-3-29,69,51,33,45,33,25,100,59,20,30.37,30.29,30.21,10,10,10,9,1,,0.00,0,,237
2013-3-30,75,62,50,46,42,37,76,49,27,30.22,30.16,30.08,10,10,10,12,4,20,0.00,5,,230
2013-3-31,78,68,59,64,52,43,100,62,34,30.08,30.00,29.91,10,10,1,16,9,28,0.00,7,Rain-Thunderstorm,237